Terug naar catalogus

STARLINK-31652

ActiefCommunicatieVLEO
NORAD 59256·PAYLOAD·🇺🇸 United States

Gelanceerd Mar 19, 2024 vanaf Vandenberg Space Force Base

Loading…

Volgende Passages (komende 24 uur)

TLE

VersSource: CelesTrak SupGP

Epoch: Sep 15, 2026, 02:50 UTC

1 59256C 24050C   26258.11854167  .00033762  00000+0  10859-2 0  2587
2 59256  53.1591  19.9659 0000970  83.4370  45.6694 15.31679647    17

Volg STARLINK-31652 in realtime met AllMySat

Download on the App Store